Location: Mahannah Oil Field
(37.4664°N, 96.6003°W)
Time: 09:55:47
(UTC+00:00)

deb Explorer IX - Pass Details

Date: 27 January 2021
Orbit: 538 x 1101 km, 38.8° (Epoch: 07 March)

Event Time Altitude Azimuth Distance (km) Brightness Sun altitude
Rises 01:50:38 0° 277° (W) 3,648 ? -25.1°
Reaches altitude 10° 01:53:28 10° 279° (W) 2,616 ? -25.6°
Maximum altitude 01:59:42 81° 6° (N) 828 ? -26.8°
Enters shadow 01:59:50 81° 30° (NNE) 827 ? -26.9°
